Time,TemperatureF,DewpointF,PressureIn,WindDirection,WindDirectionDegrees,WindSpeedMPH,WindSpeedGustMPH,Humidity,HourlyPrecipIn,Conditions,Clouds,dailyrainin,SoftwareType,DateUTC
2013-05-21 00:00:00,64.1,62.9,29.98,SE,141,0.0,0.0,96,0.00,,---,0.01,VWS V14.01,2013-05-21 04:00:00,
2013-05-21 00:01:00,64.1,62.9,29.98,SE,141,0.0,0.0,96,0.00,,---,0.01,VWS V14.01,2013-05-21 04:01:00,
2013-05-21 00:06:00,63.9,63.0,29.98,SE,141,0.0,0.0,97,0.00,,---,0.00,VWS V14.01,2013-05-21 04:06:00,
2013-05-21 00:11:00,63.8,62.9,29.98,SE,141,0.0,0.0,97,0.00,,---,0.00,VWS V14.01,2013-05-21 04:11:00,
2013-05-21 00:16:00,63.7,62.8,29.97,SE,141,0.0,0.0,97,0.00,,---,0.00,VWS V14.01,2013-05-21 04:16:00,
2013-05-21 00:21:00,63.6,62.7,29.97,SE,141,0.0,0.0,97,0.00,,---,0.00,VWS V14.01,2013-05-21 04:21:00,
2013-05-21 00:26:00,63.4,62.5,29.97,SE,141,0.0,0.0,97,0.00,,---,0.00,VWS V14.01,2013-05-21 04:26:00,
2013-05-21 00:31:00,63.3,62.4,29.97,SE,141,0.0,0.0,97,0.00,,---,0.00,VWS V14.01,2013-05-21 04:31:00,
2013-05-21 00:36:00,63.3,62.4,29.97,SE,141,0.0,0.0,97,0.00,,---,0.00,VWS V14.01,2013-05-21 04:36:00,
2013-05-21 00:41:00,63.2,62.3,29.97,SE,141,0.0,0.0,97,0.00,,---,0.00,VWS V14.01,2013-05-21 04:41:00,
2013-05-21 00:46:00,63.2,62.3,29.97,SE,141,0.0,0.0,97,0.00,,---,0.00,VWS V14.01,2013-05-21 04:46:00,
2013-05-21 00:51:00,63.1,62.2,29.98,SE,141,0.0,0.0,97,0.00,,---,0.00,VWS V14.01,2013-05-21 04:51:00,
2013-05-21 00:56:00,63.1,62.2,29.97,SE,141,0.0,0.0,97,0.00,,---,0.00,VWS V14.01,2013-05-21 04:56:00,
2013-05-21 01:01:00,63.0,62.1,29.98,SE,141,0.0,0.0,97,0.00,,---,0.00,VWS V14.01,2013-05-21 05:01:00,
2013-05-21 01:06:00,62.9,62.0,29.98,SE,141,0.0,0.0,97,0.00,,---,0.00,VWS V14.01,2013-05-21 05:06:00,
2013-05-21 01:11:00,62.8,61.9,29.98,SE,141,0.0,0.0,97,0.00,,---,0.00,VWS V14.01,2013-05-21 05:11:00,
2013-05-21 01:16:00,62.8,61.9,29.98,SE,141,0.0,0.0,97,0.00,,---,0.00,VWS V14.01,2013-05-21 05:16:00,
2013-05-21 01:21:00,62.7,61.8,29.98,SE,141,0.0,0.0,97,0.00,,---,0.00,VWS V14.01,2013-05-21 05:21:00,
2013-05-21 01:26:00,62.6,61.7,29.98,SE,141,0.0,0.0,97,0.00,,---,0.00,VWS V14.01,2013-05-21 05:26:00,
2013-05-21 01:31:00,62.5,61.6,29.97,SE,141,0.0,0.0,97,0.00,,---,0.00,VWS V14.01,2013-05-21 05:31:00,
2013-05-21 01:36:00,62.4,61.5,29.97,SE,141,0.0,0.0,97,0.00,,---,0.00,VWS V14.01,2013-05-21 05:36:00,
2013-05-21 01:41:00,62.3,61.4,29.96,SE,141,0.0,0.0,97,0.00,,---,0.00,VWS V14.01,2013-05-21 05:41:00,
2013-05-21 01:46:00,62.2,61.3,29.96,SE,141,0.0,0.0,97,0.00,,---,0.00,VWS V14.01,2013-05-21 05:46:00,
2013-05-21 01:51:00,62.2,61.3,29.96,SE,141,0.0,0.0,97,0.00,,---,0.00,VWS V14.01,2013-05-21 05:51:00,
2013-05-21 01:56:00,62.0,61.1,29.96,SE,141,0.0,0.0,97,0.00,,---,0.00,VWS V14.01,2013-05-21 05:56:00,
2013-05-21 02:01:00,61.9,61.0,29.96,SE,141,0.0,0.0,97,0.00,,---,0.00,VWS V14.01,2013-05-21 06:01:00,
2013-05-21 02:06:00,61.9,61.0,29.96,SE,141,0.0,0.0,97,0.00,,---,0.00,VWS V14.01,2013-05-21 06:06:00,
2013-05-21 02:11:00,61.9,61.3,29.96,SE,141,0.0,0.0,98,0.00,,---,0.00,VWS V14.01,2013-05-21 06:11:00,
2013-05-21 02:16:00,61.8,61.2,29.96,SE,141,0.0,0.0,98,0.00,,---,0.00,VWS V14.01,2013-05-21 06:16:00,
2013-05-21 02:21:00,61.7,60.8,29.96,SE,141,0.0,0.0,97,0.00,,---,0.00,VWS V14.01,2013-05-21 06:21:00,
2013-05-21 02:26:00,61.6,61.0,29.97,SE,141,0.0,0.0,98,0.00,,---,0.00,VWS V14.01,2013-05-21 06:26:00,
2013-05-21 02:31:00,61.5,60.6,29.96,SE,141,0.0,0.0,97,0.00,,---,0.00,VWS V14.01,2013-05-21 06:31:00,
2013-05-21 02:36:00,61.4,60.8,29.96,SE,141,0.0,0.0,98,0.00,,---,0.00,VWS V14.01,2013-05-21 06:36:00,
2013-05-21 02:41:00,61.3,60.7,29.96,SE,141,0.0,0.0,98,0.00,,---,0.00,VWS V14.01,2013-05-21 06:41:00,
2013-05-21 02:46:00,61.3,60.7,29.96,SE,141,0.0,0.0,98,0.00,,---,0.00,VWS V14.01,2013-05-21 06:46:00,
2013-05-21 02:51:00,61.2,60.6,29.96,SE,141,0.0,0.0,98,0.00,,---,0.00,VWS V14.01,2013-05-21 06:51:00,
2013-05-21 02:56:00,61.1,60.5,29.96,SE,141,0.0,0.0,98,0.00,,---,0.00,VWS V14.01,2013-05-21 06:56:00,
2013-05-21 03:01:00,61.1,60.5,29.95,SE,141,0.0,0.0,98,0.00,,---,0.00,VWS V14.01,2013-05-21 07:01:00,
2013-05-21 03:06:00,61.1,60.5,29.95,SE,141,0.0,0.0,98,0.00,,---,0.00,VWS V14.01,2013-05-21 07:06:00,
2013-05-21 03:11:00,61.0,60.4,29.95,SE,141,0.0,0.0,98,0.00,,---,0.00,VWS V14.01,2013-05-21 07:11:00,
2013-05-21 03:16:00,61.0,60.4,29.94,SE,141,0.0,0.0,98,0.00,,---,0.00,VWS V14.01,2013-05-21 07:16:00,
2013-05-21 03:21:00,60.9,60.3,29.94,SE,141,0.0,0.0,98,0.00,,---,0.00,VWS V14.01,2013-05-21 07:21:00,
2013-05-21 03:26:00,60.8,60.2,29.94,SE,141,0.0,0.0,98,0.00,,---,0.00,VWS V14.01,2013-05-21 07:26:00,
2013-05-21 03:31:00,60.8,60.2,29.94,SE,141,0.0,0.0,98,0.00,,---,0.00,VWS V14.01,2013-05-21 07:31:00,
2013-05-21 03:36:00,60.7,60.1,29.94,SE,141,0.0,0.0,98,0.00,,---,0.00,VWS V14.01,2013-05-21 07:36:00,
2013-05-21 03:41:00,60.7,60.1,29.94,SE,141,0.0,0.0,98,0.00,,---,0.00,VWS V14.01,2013-05-21 07:41:00,
2013-05-21 03:46:00,60.7,60.1,29.94,SE,141,0.0,0.0,98,0.00,,---,0.00,VWS V14.01,2013-05-21 07:46:00,
2013-05-21 03:51:00,60.7,60.1,29.94,SE,141,0.0,0.0,98,0.00,,---,0.00,VWS V14.01,2013-05-21 07:51:00,
2013-05-21 03:56:00,60.6,60.0,29.94,SE,141,0.0,0.0,98,0.00,,---,0.00,VWS V14.01,2013-05-21 07:56:00,
2013-05-21 04:01:00,60.5,59.9,29.94,SE,141,0.0,0.0,98,0.00,,---,0.00,VWS V14.01,2013-05-21 08:01:00,
2013-05-21 04:06:00,60.4,59.8,29.94,SE,141,0.0,0.0,98,0.00,,---,0.00,VWS V14.01,2013-05-21 08:06:00,
2013-05-21 04:11:00,60.4,59.8,29.94,SE,141,0.0,0.0,98,0.00,,---,0.00,VWS V14.01,2013-05-21 08:11:00,
2013-05-21 04:16:00,60.4,59.8,29.94,SE,141,0.0,0.0,98,0.00,,---,0.00,VWS V14.01,2013-05-21 08:16:00,
2013-05-21 04:21:00,60.3,59.7,29.94,SE,141,0.0,0.0,98,0.00,,---,0.00,VWS V14.01,2013-05-21 08:21:00,
2013-05-21 04:26:00,60.3,59.7,29.94,SE,141,0.0,0.0,98,0.00,,---,0.00,VWS V14.01,2013-05-21 08:26:00,
2013-05-21 04:31:00,60.3,59.7,29.94,SE,141,0.0,0.0,98,0.00,,---,0.00,VWS V14.01,2013-05-21 08:31:00,
2013-05-21 04:36:00,60.2,59.6,29.94,SE,141,0.0,0.0,98,0.00,,---,0.00,VWS V14.01,2013-05-21 08:36:00,
2013-05-21 04:41:00,60.2,59.6,29.95,SE,141,0.0,0.0,98,0.00,,---,0.00,VWS V14.01,2013-05-21 08:41:00,
2013-05-21 04:46:00,60.1,59.5,29.95,SE,141,0.0,0.0,98,0.00,,---,0.00,VWS V14.01,2013-05-21 08:46:00,
2013-05-21 04:51:00,60.1,59.5,29.95,SE,141,0.0,0.0,98,0.00,,---,0.00,VWS V14.01,2013-05-21 08:51:00,
2013-05-21 04:56:00,60.1,59.5,29.95,SE,141,0.0,0.0,98,0.00,,---,0.00,VWS V14.01,2013-05-21 08:56:00,
2013-05-21 05:01:00,60.1,59.5,29.95,SE,141,0.0,0.0,98,0.00,,---,0.00,VWS V14.01,2013-05-21 09:01:00,
2013-05-21 05:06:00,60.0,59.4,29.95,SE,141,0.0,0.0,98,0.00,,---,0.00,VWS V14.01,2013-05-21 09:06:00,
2013-05-21 05:11:00,59.9,59.3,29.94,SE,141,0.0,0.0,98,0.00,,---,0.00,VWS V14.01,2013-05-21 09:11:00,
2013-05-21 05:16:00,59.9,59.3,29.94,SE,141,0.0,0.0,98,0.00,,---,0.00,VWS V14.01,2013-05-21 09:16:00,
2013-05-21 05:21:00,59.9,59.3,29.95,SE,141,0.0,0.0,98,0.00,,---,0.00,VWS V14.01,2013-05-21 09:21:00,
2013-05-21 05:26:00,60.0,59.4,29.95,SE,141,0.0,0.0,98,0.00,,---,0.00,VWS V14.01,2013-05-21 09:26:00,
2013-05-21 05:31:00,60.0,59.4,29.95,SE,141,0.0,0.0,98,0.00,,---,0.00,VWS V14.01,2013-05-21 09:31:00,
2013-05-21 05:36:00,59.9,59.3,29.96,SE,141,0.0,0.0,98,0.00,,---,0.00,VWS V14.01,2013-05-21 09:36:00,
2013-05-21 05:41:00,59.9,59.3,29.96,SE,141,0.0,0.0,98,0.00,,---,0.00,VWS V14.01,2013-05-21 09:41:00,
2013-05-21 05:46:00,59.7,59.1,29.95,SE,141,0.0,0.0,98,0.00,,---,0.00,VWS V14.01,2013-05-21 09:46:00,
2013-05-21 05:51:00,59.7,59.1,29.96,SE,141,0.0,0.0,98,0.00,,---,0.00,VWS V14.01,2013-05-21 09:51:00,
2013-05-21 05:56:00,59.6,59.0,29.96,SE,141,0.0,0.0,98,0.00,,---,0.00,VWS V14.01,2013-05-21 09:56:00,
2013-05-21 06:01:00,59.6,59.0,29.96,SE,141,0.0,0.0,98,0.00,,---,0.00,VWS V14.01,2013-05-21 10:01:00,
2013-05-21 06:06:00,59.7,59.1,29.96,SE,141,0.0,0.0,98,0.00,,---,0.00,VWS V14.01,2013-05-21 10:06:00,
2013-05-21 06:11:00,59.7,59.1,29.97,SE,141,0.0,0.0,98,0.00,,---,0.00,VWS V14.01,2013-05-21 10:11:00,
2013-05-21 06:16:00,59.8,59.5,29.97,SE,141,0.0,0.0,99,0.00,,---,0.00,VWS V14.01,2013-05-21 10:16:00,
2013-05-21 06:21:00,60.0,59.7,29.96,SE,141,0.0,0.0,99,0.00,,---,0.00,VWS V14.01,2013-05-21 10:21:00,
2013-05-21 06:26:00,60.1,59.8,29.96,SE,141,0.0,0.0,99,0.00,,---,0.00,VWS V14.01,2013-05-21 10:26:00,
2013-05-21 06:31:00,60.3,60.0,29.96,SE,141,0.0,0.0,99,0.00,,---,0.00,VWS V14.01,2013-05-21 10:31:00,
2013-05-21 06:36:00,60.5,60.2,29.96,SE,141,0.0,0.0,99,0.00,,---,0.00,VWS V14.01,2013-05-21 10:36:00,
2013-05-21 06:41:00,60.6,60.3,29.96,SE,141,0.0,0.0,99,0.00,,---,0.00,VWS V14.01,2013-05-21 10:41:00,
2013-05-21 06:46:00,60.8,60.5,29.95,SE,141,0.0,0.0,99,0.00,,---,0.00,VWS V14.01,2013-05-21 10:46:00,
2013-05-21 06:51:00,61.0,60.7,29.95,SE,141,0.0,0.0,99,0.00,,---,0.00,VWS V14.01,2013-05-21 10:51:00,
2013-05-21 06:56:00,61.1,60.8,29.96,SE,141,0.0,0.0,99,0.00,,---,0.00,VWS V14.01,2013-05-21 10:56:00,
2013-05-21 07:01:00,61.3,61.0,29.96,SE,141,0.0,0.0,99,0.00,,---,0.00,VWS V14.01,2013-05-21 11:01:00,
2013-05-21 07:06:00,61.6,61.3,29.97,SSW,208,0.0,0.0,99,0.00,,---,0.00,VWS V14.01,2013-05-21 11:06:00,
2013-05-21 07:11:00,61.8,61.5,29.97,SW,214,0.0,0.0,99,0.00,,---,0.00,VWS V14.01,2013-05-21 11:11:00,
2013-05-21 07:16:00,62.9,62.6,29.97,SE,138,0.0,0.0,99,0.00,,---,0.00,VWS V14.01,2013-05-21 11:16:00,
2013-05-21 07:21:00,63.3,63.0,29.97,West,267,2.0,3.0,99,0.00,,---,0.00,VWS V14.01,2013-05-21 11:21:00,
2013-05-21 07:26:00,63.6,63.3,29.97,West,259,1.0,3.0,99,0.00,,---,0.00,VWS V14.01,2013-05-21 11:26:00,
2013-05-21 07:31:00,63.8,64.0,29.96,West,273,1.0,3.0,99,0.00,,,0.00,weatherlink.com 1.10,2013-05-21 11:31:00,
2013-05-21 07:36:00,63.9,63.6,29.96,West,264,0.0,3.0,99,0.00,,---,0.00,VWS V14.01,2013-05-21 11:36:00,
2013-05-21 07:41:00,64.1,63.8,29.97,WSW,253,0.0,3.0,99,0.00,,---,0.00,VWS V14.01,2013-05-21 11:41:00,
2013-05-21 07:46:00,64.4,64.1,29.96,WSW,255,0.0,3.0,99,0.00,,---,0.00,VWS V14.01,2013-05-21 11:46:00,
2013-05-21 07:51:00,64.7,64.4,29.97,West,268,2.0,3.0,99,0.00,,---,0.00,VWS V14.01,2013-05-21 11:51:00,
2013-05-21 07:56:00,65.0,64.7,29.96,WSW,253,0.0,3.0,99,0.00,,---,0.00,VWS V14.01,2013-05-21 11:56:00,
2013-05-21 08:01:00,65.4,65.1,29.96,WSW,252,0.0,0.0,99,0.00,,---,0.00,VWS V14.01,2013-05-21 12:01:00,
2013-05-21 08:06:00,65.7,65.4,29.96,West,265,0.0,1.0,99,0.00,,---,0.00,VWS V14.01,2013-05-21 12:06:00,
2013-05-21 08:11:00,66.0,65.7,29.96,WSW,258,1.0,2.0,99,0.00,,---,0.00,VWS V14.01,2013-05-21 12:11:00,
2013-05-21 08:16:00,66.3,66.0,29.96,West,270,1.0,4.0,99,0.00,,---,0.00,VWS V14.01,2013-05-21 12:16:00,
2013-05-21 08:21:00,66.7,66.1,29.96,West,278,3.0,4.0,98,0.00,,---,0.00,VWS V14.01,2013-05-21 12:21:00,
2013-05-21 08:26:00,67.2,66.6,29.96,West,276,4.0,4.0,98,0.00,,---,0.00,VWS V14.01,2013-05-21 12:26:00,
2013-05-21 08:31:00,67.7,66.8,29.96,West,263,3.0,3.0,97,0.00,,---,0.00,VWS V14.01,2013-05-21 12:31:00,
2013-05-21 08:36:00,68.2,67.0,29.96,West,280,2.0,3.0,96,0.00,,---,0.00,VWS V14.01,2013-05-21 12:36:00,
2013-05-21 08:41:00,68.6,66.8,29.96,West,269,2.0,5.0,94,0.00,,---,0.00,VWS V14.01,2013-05-21 12:41:00,
2013-05-21 08:46:00,68.9,66.8,29.96,West,274,2.0,6.0,93,0.00,,---,0.00,VWS V14.01,2013-05-21 12:46:00,
2013-05-21 08:51:00,69.3,67.2,29.96,West,273,1.0,6.0,93,0.00,,---,0.00,VWS V14.01,2013-05-21 12:51:00,
2013-05-21 08:56:00,69.6,67.2,29.96,WNW,285,1.0,6.0,92,0.00,,---,0.00,VWS V14.01,2013-05-21 12:56:00,
2013-05-21 09:01:00,70.0,67.6,29.96,SSE,164,1.0,1.0,92,0.00,,---,0.00,VWS V14.01,2013-05-21 13:01:00,
2013-05-21 09:06:00,70.4,67.7,29.96,West,266,2.0,4.0,91,0.00,,---,0.00,VWS V14.01,2013-05-21 13:06:00,
2013-05-21 09:11:00,70.8,67.7,29.95,West,270,2.0,4.0,90,0.00,,---,0.00,VWS V14.01,2013-05-21 13:11:00,
2013-05-21 09:16:00,71.1,68.0,29.96,West,268,2.0,4.0,90,0.00,,---,0.00,VWS V14.01,2013-05-21 13:16:00,
2013-05-21 09:21:00,71.5,68.1,29.95,West,262,1.0,4.0,89,0.00,,---,0.00,VWS V14.01,2013-05-21 13:21:00,
2013-05-21 09:26:00,71.7,68.0,29.96,West,270,2.0,5.0,88,0.00,,---,0.00,VWS V14.01,2013-05-21 13:26:00,
2013-05-21 09:31:00,72.0,68.3,29.95,West,273,0.0,1.0,88,0.00,,---,0.00,VWS V14.01,2013-05-21 13:31:00,
2013-05-21 09:36:00,72.4,68.3,29.95,West,280,2.0,6.0,87,0.00,,---,0.00,VWS V14.01,2013-05-21 13:36:00,
2013-05-21 09:41:00,72.8,68.7,29.95,SE,146,1.0,6.0,87,0.00,,---,0.00,VWS V14.01,2013-05-21 13:41:00,
2013-05-21 09:46:00,73.3,68.9,29.95,West,274,0.0,6.0,86,0.00,,---,0.00,VWS V14.01,2013-05-21 13:46:00,
2013-05-21 09:51:00,73.8,69.3,29.95,SW,226,0.0,6.0,86,0.00,,---,0.00,VWS V14.01,2013-05-21 13:51:00,
2013-05-21 09:56:00,74.2,69.4,29.95,SE,129,1.0,6.0,85,0.00,,---,0.00,VWS V14.01,2013-05-21 13:56:00,
2013-05-21 10:01:00,74.7,69.6,29.95,West,263,2.0,2.0,84,0.00,,---,0.00,VWS V14.01,2013-05-21 14:01:00,
2013-05-21 10:06:00,74.7,69.6,29.95,SSE,152,0.0,6.0,84,0.00,,---,0.00,VWS V14.01,2013-05-21 14:06:00,
2013-05-21 10:11:00,75.1,69.9,29.95,ESE,120,3.0,6.0,84,0.00,,---,0.00,VWS V14.01,2013-05-21 14:11:00,
2013-05-21 10:16:00,75.5,69.6,29.95,West,277,3.0,6.0,82,0.00,,---,0.00,VWS V14.01,2013-05-21 14:16:00,
2013-05-21 10:21:00,75.8,69.9,29.94,West,281,3.0,6.0,82,0.00,,---,0.00,VWS V14.01,2013-05-21 14:21:00,
2013-05-21 10:26:00,76.4,69.8,29.94,West,264,1.0,6.0,80,0.00,,---,0.00,VWS V14.01,2013-05-21 14:26:00,
2013-05-21 10:31:00,76.9,69.5,29.93,WSW,238,0.0,1.0,78,0.00,,---,0.00,VWS V14.01,2013-05-21 14:31:00,
2013-05-21 10:36:00,77.5,70.1,29.93,SSE,147,1.0,3.0,78,0.00,,---,0.00,VWS V14.01,2013-05-21 14:36:00,
2013-05-21 10:41:00,78.2,70.0,29.93,SSE,164,1.0,3.0,76,0.00,,---,0.00,VWS V14.01,2013-05-21 14:41:00,
2013-05-21 10:46:00,78.5,69.9,29.93,West,278,1.0,4.0,75,0.00,,---,0.00,VWS V14.01,2013-05-21 14:46:00,
2013-05-21 10:51:00,78.8,69.8,29.93,West,267,2.0,4.0,74,0.00,,---,0.00,VWS V14.01,2013-05-21 14:51:00,
2013-05-21 10:56:00,79.2,70.2,29.93,SW,226,1.0,4.0,74,0.00,,---,0.00,VWS V14.01,2013-05-21 14:56:00,
2013-05-21 11:01:00,79.8,70.0,29.93,WNW,288,5.0,5.0,72,0.00,,---,0.00,VWS V14.01,2013-05-21 15:01:00,
2013-05-21 11:06:00,79.7,69.9,29.93,West,271,0.0,7.0,72,0.00,,---,0.00,VWS V14.01,2013-05-21 15:06:00,
2013-05-21 11:11:00,80.4,70.1,29.93,West,280,0.0,7.0,71,0.00,,---,0.00,VWS V14.01,2013-05-21 15:11:00,
2013-05-21 11:16:00,81.0,70.3,29.92,West,279,3.0,7.0,70,0.00,,---,0.00,VWS V14.01,2013-05-21 15:16:00,
2013-05-21 11:21:00,81.0,69.9,29.92,SE,128,0.0,7.0,69,0.00,,---,0.00,VWS V14.01,2013-05-21 15:21:00,
2013-05-21 11:26:00,81.7,71.0,29.92,West,272,2.0,7.0,70,0.00,,---,0.00,VWS V14.01,2013-05-21 15:26:00,
2013-05-21 11:31:00,82.4,70.3,29.92,SE,144,0.0,1.0,67,0.00,,---,0.00,VWS V14.01,2013-05-21 15:31:00,
2013-05-21 11:36:00,83.1,70.1,29.92,SW,231,1.0,3.0,65,0.00,,---,0.00,VWS V14.01,2013-05-21 15:36:00,
2013-05-21 11:41:00,82.7,69.8,29.92,WSW,253,0.0,6.0,65,0.00,,---,0.00,VWS V14.01,2013-05-21 15:41:00,
2013-05-21 11:46:00,82.7,69.8,29.92,West,277,3.0,6.0,65,0.00,,---,0.00,VWS V14.01,2013-05-21 15:46:00,
2013-05-21 11:51:00,83.0,70.0,29.91,West,260,1.0,6.0,65,0.00,,---,0.00,VWS V14.01,2013-05-21 15:51:00,
2013-05-21 11:56:00,82.9,69.0,29.91,West,267,3.0,6.0,63,0.00,,---,0.00,VWS V14.01,2013-05-21 15:56:00,
2013-05-21 12:01:00,82.6,69.2,29.91,SW,229,3.0,7.0,64,0.00,,---,0.00,VWS V14.01,2013-05-21 16:01:00,
2013-05-21 12:06:00,83.2,70.2,29.91,SE,135,2.0,7.0,65,0.00,,---,0.00,VWS V14.01,2013-05-21 16:06:00,
2013-05-21 12:11:00,83.7,69.8,29.91,SE,141,1.0,7.0,63,0.00,,---,0.00,VWS V14.01,2013-05-21 16:11:00,
2013-05-21 12:16:00,84.5,69.6,29.91,WNW,284,1.0,7.0,61,0.00,,---,0.00,VWS V14.01,2013-05-21 16:16:00,
2013-05-21 12:21:00,84.9,70.0,29.90,ESE,104,1.0,7.0,61,0.00,,---,0.00,VWS V14.01,2013-05-21 16:21:00,
2013-05-21 12:26:00,84.6,69.7,29.90,West,273,6.0,7.0,61,0.00,,---,0.00,VWS V14.01,2013-05-21 16:26:00,
2013-05-21 12:31:00,84.1,69.7,29.90,WSW,257,1.0,2.0,62,0.00,,---,0.00,VWS V14.01,2013-05-21 16:31:00,
2013-05-21 12:36:00,84.9,71.4,29.90,West,274,4.0,4.0,64,0.00,,---,0.00,VWS V14.01,2013-05-21 16:36:00,
2013-05-21 12:41:00,85.2,69.3,29.90,WNW,287,1.0,5.0,59,0.00,,---,0.00,VWS V14.01,2013-05-21 16:41:00,
2013-05-21 12:46:00,84.9,69.0,29.90,WNW,284,1.0,8.0,59,0.00,,---,0.00,VWS V14.01,2013-05-21 16:46:00,
2013-05-21 12:51:00,84.3,69.4,29.90,West,269,3.0,8.0,61,0.00,,---,0.00,VWS V14.01,2013-05-21 16:51:00,
2013-05-21 12:56:00,84.9,69.5,29.90,West,276,2.0,8.0,60,0.00,,---,0.00,VWS V14.01,2013-05-21 16:56:00,
2013-05-21 13:01:00,85.2,70.2,29.90,West,277,1.0,4.0,61,0.00,,---,0.00,VWS V14.01,2013-05-21 17:01:00,
2013-05-21 13:06:00,85.5,70.0,29.90,West,276,4.0,6.0,60,0.00,,---,0.00,VWS V14.01,2013-05-21 17:06:00,
2013-05-21 13:11:00,85.5,70.5,29.89,NW,313,2.0,6.0,61,0.00,,---,0.00,VWS V14.01,2013-05-21 17:11:00,
2013-05-21 13:16:00,86.6,70.6,29.89,SSE,167,0.0,6.0,59,0.00,,---,0.00,VWS V14.01,2013-05-21 17:16:00,
2013-05-21 13:21:00,87.2,70.6,29.89,WNW,291,2.0,6.0,58,0.00,,---,0.00,VWS V14.01,2013-05-21 17:21:00,
2013-05-21 13:26:00,86.9,70.9,29.89,SE,141,1.0,6.0,59,0.00,,---,0.00,VWS V14.01,2013-05-21 17:26:00,
2013-05-21 13:31:00,87.1,70.5,29.89,West,276,4.0,4.0,58,0.00,,---,0.00,VWS V14.01,2013-05-21 17:31:00,
2013-05-21 13:36:00,85.9,69.9,29.88,NW,311,0.0,6.0,59,0.00,,---,0.00,VWS V14.01,2013-05-21 17:36:00,
2013-05-21 13:41:00,85.4,69.9,29.88,West,263,1.0,7.0,60,0.00,,---,0.00,VWS V14.01,2013-05-21 17:41:00,
2013-05-21 13:46:00,85.8,70.3,29.88,WSW,246,0.0,7.0,60,0.00,,---,0.00,VWS V14.01,2013-05-21 17:46:00,
2013-05-21 13:51:00,86.8,70.3,29.88,NNW,328,1.0,7.0,58,0.00,,---,0.00,VWS V14.01,2013-05-21 17:51:00,
2013-05-21 13:56:00,86.8,69.2,29.88,West,271,1.0,7.0,56,0.00,,---,0.00,VWS V14.01,2013-05-21 17:56:00,
2013-05-21 14:01:00,87.3,69.7,29.88,WNW,284,5.0,5.0,56,0.00,,---,0.00,VWS V14.01,2013-05-21 18:01:00,
2013-05-21 14:06:00,87.0,69.9,29.88,West,274,5.0,8.0,57,0.00,,---,0.00,VWS V14.01,2013-05-21 18:06:00,
2013-05-21 14:11:00,86.8,70.3,29.87,SSE,168,2.0,8.0,58,0.00,,---,0.00,VWS V14.01,2013-05-21 18:11:00,
2013-05-21 14:16:00,87.9,70.8,29.87,WSW,244,1.0,8.0,57,0.00,,---,0.00,VWS V14.01,2013-05-21 18:16:00,
2013-05-21 14:21:00,89.1,71.4,29.87,WSW,256,1.0,8.0,56,0.00,,---,0.00,VWS V14.01,2013-05-21 18:21:00,
2013-05-21 14:26:00,88.2,70.5,29.87,WSW,255,1.0,8.0,56,0.00,,---,0.00,VWS V14.01,2013-05-21 18:26:00,
2013-05-21 14:31:00,87.5,70.9,29.87,East,94,0.0,1.0,58,0.00,,---,0.00,VWS V14.01,2013-05-21 18:31:00,
2013-05-21 14:36:00,87.5,70.9,29.87,SE,135,2.0,4.0,58,0.00,,---,0.00,VWS V14.01,2013-05-21 18:36:00,
2013-05-21 14:41:00,87.3,71.2,29.87,South,177,2.0,6.0,59,0.00,,---,0.00,VWS V14.01,2013-05-21 18:41:00,
2013-05-21 14:46:00,88.1,70.4,29.87,South,170,1.0,6.0,56,0.00,,---,0.00,VWS V14.01,2013-05-21 18:46:00,
2013-05-21 14:51:00,88.2,70.5,29.87,NW,326,1.0,6.0,56,0.00,,---,0.00,VWS V14.01,2013-05-21 18:51:00,
2013-05-21 14:56:00,87.5,70.9,29.87,ESE,122,0.0,6.0,58,0.00,,---,0.00,VWS V14.01,2013-05-21 18:56:00,
2013-05-21 15:01:00,87.4,71.3,29.87,West,271,1.0,2.0,59,0.00,,---,0.00,VWS V14.01,2013-05-21 19:01:00,
2013-05-21 15:06:00,87.0,70.4,29.86,WSW,243,2.0,6.0,58,0.00,,---,0.00,VWS V14.01,2013-05-21 19:06:00,
2013-05-21 15:11:00,87.2,70.6,29.87,West,278,2.0,6.0,58,0.00,,---,0.00,VWS V14.01,2013-05-21 19:11:00,
2013-05-21 15:16:00,87.6,71.0,29.86,WNW,288,1.0,6.0,58,0.00,,---,0.00,VWS V14.01,2013-05-21 19:16:00,
2013-05-21 15:21:00,87.7,71.6,29.86,WSW,256,2.0,6.0,59,0.00,,---,0.00,VWS V14.01,2013-05-21 19:21:00,
2013-05-21 15:26:00,87.9,69.7,29.86,West,274,5.0,6.0,55,0.00,,---,0.00,VWS V14.01,2013-05-21 19:26:00,
2013-05-21 15:31:00,87.9,70.8,29.85,West,260,1.0,1.0,57,0.00,,---,0.00,VWS V14.01,2013-05-21 19:31:00,
2013-05-21 15:36:00,88.4,70.2,29.85,SSE,152,1.0,3.0,55,0.00,,---,0.00,VWS V14.01,2013-05-21 19:36:00,
2013-05-21 15:41:00,88.3,70.1,29.85,SE,131,2.0,5.0,55,0.00,,---,0.00,VWS V14.01,2013-05-21 19:41:00,
2013-05-21 15:46:00,87.7,70.1,29.85,South,187,0.0,8.0,56,0.00,,---,0.00,VWS V14.01,2013-05-21 19:46:00,
2013-05-21 15:51:00,88.0,69.8,29.85,West,262,2.0,8.0,55,0.00,,---,0.00,VWS V14.01,2013-05-21 19:51:00,
2013-05-21 15:56:00,88.4,70.7,29.84,SE,143,1.0,8.0,56,0.00,,---,0.00,VWS V14.01,2013-05-21 19:56:00,
2013-05-21 16:01:00,88.2,70.0,29.84,SE,146,2.0,2.0,55,0.00,,---,0.00,VWS V14.01,2013-05-21 20:01:00,
2013-05-21 16:06:00,87.9,69.2,29.84,WNW,291,3.0,8.0,54,0.00,,---,0.00,VWS V14.01,2013-05-21 20:06:00,
2013-05-21 16:11:00,87.6,70.0,29.84,West,276,3.0,8.0,56,0.00,,---,0.00,VWS V14.01,2013-05-21 20:11:00,
2013-05-21 16:16:00,87.2,70.1,29.84,West,278,4.0,8.0,57,0.00,,---,0.00,VWS V14.01,2013-05-21 20:16:00,
2013-05-21 16:21:00,86.7,69.1,29.84,West,276,4.0,8.0,56,0.00,,---,0.00,VWS V14.01,2013-05-21 20:21:00,
2013-05-21 16:26:00,86.7,69.7,29.84,SW,229,2.0,8.0,57,0.00,,---,0.00,VWS V14.01,2013-05-21 20:26:00,
2013-05-21 16:31:00,86.7,69.1,29.83,WSW,258,2.0,4.0,56,0.00,,---,0.00,VWS V14.01,2013-05-21 20:31:00,
2013-05-21 16:36:00,86.4,69.4,29.83,NW,304,0.0,5.0,57,0.00,,---,0.00,VWS V14.01,2013-05-21 20:36:00,
2013-05-21 16:41:00,86.2,69.7,29.83,WNW,283,3.0,5.0,58,0.00,,---,0.00,VWS V14.01,2013-05-21 20:41:00,
2013-05-21 16:46:00,86.1,70.1,29.83,SSW,212,0.0,5.0,59,0.00,,---,0.00,VWS V14.01,2013-05-21 20:46:00,
2013-05-21 16:51:00,86.5,70.5,29.83,West,280,2.0,5.0,59,0.00,,---,0.00,VWS V14.01,2013-05-21 20:51:00,
2013-05-21 16:56:00,86.5,70.5,29.83,West,271,4.0,5.0,59,0.00,,---,0.00,VWS V14.01,2013-05-21 20:56:00,
2013-05-21 17:01:00,86.4,69.9,29.83,WSW,239,4.0,5.0,58,0.00,,---,0.00,VWS V14.01,2013-05-21 21:01:00,
2013-05-21 17:06:00,86.3,70.3,29.83,West,276,4.0,5.0,59,0.00,,---,0.00,VWS V14.01,2013-05-21 21:06:00,
2013-05-21 17:11:00,85.9,69.4,29.83,SW,232,1.0,6.0,58,0.00,,---,0.00,VWS V14.01,2013-05-21 21:11:00,
2013-05-21 17:16:00,86.0,69.5,29.83,ESE,117,3.0,7.0,58,0.00,,---,0.00,VWS V14.01,2013-05-21 21:16:00,
2013-05-21 17:21:00,86.2,70.2,29.83,WNW,284,1.0,7.0,59,0.00,,---,0.00,VWS V14.01,2013-05-21 21:21:00,
2013-05-21 17:26:00,86.3,70.3,29.83,South,190,1.0,7.0,59,0.00,,---,0.00,VWS V14.01,2013-05-21 21:26:00,
2013-05-21 17:31:00,86.4,69.9,29.83,West,272,7.0,7.0,58,0.00,,---,0.00,VWS V14.01,2013-05-21 21:31:00,
2013-05-21 17:36:00,86.2,69.7,29.83,SSE,149,1.0,7.0,58,0.00,,---,0.00,VWS V14.01,2013-05-21 21:36:00,
2013-05-21 17:41:00,86.3,70.3,29.83,SSE,153,1.0,7.0,59,0.00,,---,0.00,VWS V14.01,2013-05-21 21:41:00,
2013-05-21 17:46:00,86.3,69.8,29.83,SE,131,1.0,7.0,58,0.00,,---,0.00,VWS V14.01,2013-05-21 21:46:00,
2013-05-21 17:51:00,86.2,70.7,29.83,West,274,2.0,7.0,60,0.00,,---,0.00,VWS V14.01,2013-05-21 21:51:00,
2013-05-21 17:56:00,85.9,69.9,29.83,SW,229,0.0,7.0,59,0.00,,---,0.00,VWS V14.01,2013-05-21 21:56:00,
2013-05-21 18:01:00,85.7,70.2,29.83,WSW,242,1.0,2.0,60,0.00,,---,0.00,VWS V14.01,2013-05-21 22:01:00,
2013-05-21 18:06:00,85.5,70.0,29.83,NW,313,4.0,5.0,60,0.00,,---,0.00,VWS V14.01,2013-05-21 22:06:00,
2013-05-21 18:11:00,85.2,70.2,29.83,West,276,2.0,8.0,61,0.00,,---,0.00,VWS V14.01,2013-05-21 22:11:00,
2013-05-21 18:16:00,85.0,70.5,29.83,West,267,0.0,8.0,62,0.00,,---,0.00,VWS V14.01,2013-05-21 22:16:00,
2013-05-21 18:21:00,84.8,69.9,29.83,West,259,2.0,8.0,61,0.00,,---,0.00,VWS V14.01,2013-05-21 22:21:00,
2013-05-21 18:26:00,84.7,70.2,29.83,SW,228,2.0,8.0,62,0.00,,---,0.00,VWS V14.01,2013-05-21 22:26:00,
2013-05-21 18:31:00,84.5,70.1,29.83,West,278,2.0,2.0,62,0.00,,---,0.00,VWS V14.01,2013-05-21 22:31:00,
2013-05-21 18:36:00,84.3,69.9,29.83,West,266,2.0,6.0,62,0.00,,---,0.00,VWS V14.01,2013-05-21 22:36:00,
2013-05-21 18:41:00,84.3,70.3,29.83,WNW,286,1.0,6.0,63,0.00,,---,0.00,VWS V14.01,2013-05-21 22:41:00,
2013-05-21 18:46:00,84.2,70.2,29.83,SSW,210,0.0,6.0,63,0.00,,---,0.00,VWS V14.01,2013-05-21 22:46:00,
2013-05-21 18:51:00,84.1,70.6,29.83,SSW,207,2.0,6.0,64,0.00,,---,0.00,VWS V14.01,2013-05-21 22:51:00,
2013-05-21 18:56:00,84.1,70.6,29.83,West,274,1.0,6.0,64,0.00,,---,0.00,VWS V14.01,2013-05-21 22:56:00,
2013-05-21 19:01:00,84.1,70.6,29.83,West,269,1.0,4.0,64,0.00,,---,0.00,VWS V14.01,2013-05-21 23:01:00,
2013-05-21 19:06:00,83.9,70.4,29.83,SSW,200,0.0,4.0,64,0.00,,---,0.00,VWS V14.01,2013-05-21 23:06:00,
2013-05-21 19:11:00,83.7,70.7,29.83,SSE,156,0.0,4.0,65,0.00,,---,0.00,VWS V14.01,2013-05-21 23:11:00,
2013-05-21 19:16:00,83.4,70.4,29.83,West,268,1.0,5.0,65,0.00,,---,0.00,VWS V14.01,2013-05-21 23:16:00,
2013-05-21 19:21:00,83.1,70.6,29.83,West,276,0.0,5.0,66,0.00,,---,0.00,VWS V14.01,2013-05-21 23:21:00,
2013-05-21 19:26:00,82.9,70.8,29.84,West,271,1.0,5.0,67,0.00,,---,0.00,VWS V14.01,2013-05-21 23:26:00,
2013-05-21 19:31:00,82.5,70.4,29.84,West,264,0.0,0.0,67,0.00,,---,0.00,VWS V14.01,2013-05-21 23:31:00,
2013-05-21 19:36:00,82.2,70.6,29.83,NW,306,2.0,2.0,68,0.00,,---,0.00,VWS V14.01,2013-05-21 23:36:00,
2013-05-21 19:41:00,81.9,70.7,29.84,WSW,248,0.0,2.0,69,0.00,,---,0.00,VWS V14.01,2013-05-21 23:41:00,
2013-05-21 19:46:00,81.5,70.8,29.84,WSW,252,1.0,2.0,70,0.00,,---,0.00,VWS V14.01,2013-05-21 23:46:00,
2013-05-21 19:51:00,81.0,70.3,29.84,West,263,1.0,3.0,70,0.00,,---,0.00,VWS V14.01,2013-05-21 23:51:00,
2013-05-21 19:56:00,80.8,70.1,29.85,West,280,1.0,3.0,70,0.00,,---,0.00,VWS V14.01,2013-05-21 23:56:00,
2013-05-21 20:01:00,80.6,69.9,29.85,WNW,283,1.0,1.0,70,0.00,,---,0.00,VWS V14.01,2013-05-22 00:01:00,
2013-05-21 20:06:00,80.4,70.1,29.85,West,266,1.0,3.0,71,0.00,,---,0.00,VWS V14.01,2013-05-22 00:06:00,
2013-05-21 20:11:00,80.0,69.8,29.85,WSW,242,0.0,3.0,71,0.00,,---,0.00,VWS V14.01,2013-05-22 00:11:00,
2013-05-21 20:16:00,79.8,70.0,29.85,West,273,0.0,3.0,72,0.00,,---,0.00,VWS V14.01,2013-05-22 00:16:00,
2013-05-21 20:21:00,79.5,69.7,29.85,WSW,256,0.0,3.0,72,0.00,,---,0.00,VWS V14.01,2013-05-22 00:21:00,
2013-05-21 20:26:00,79.0,69.6,29.84,West,266,0.0,3.0,73,0.00,,---,0.00,VWS V14.01,2013-05-22 00:26:00,
2013-05-21 20:31:00,78.7,69.7,29.84,West,281,0.0,0.0,74,0.00,,---,0.00,VWS V14.01,2013-05-22 00:31:00,
2013-05-21 20:36:00,78.5,69.9,29.84,West,264,0.0,2.0,75,0.00,,---,0.00,VWS V14.01,2013-05-22 00:36:00,
2013-05-21 20:41:00,78.2,69.2,29.85,West,263,1.0,2.0,74,0.00,,---,0.00,VWS V14.01,2013-05-22 00:41:00,
2013-05-21 20:46:00,78.1,69.1,29.85,WSW,249,1.0,2.0,74,0.00,,---,0.00,VWS V14.01,2013-05-22 00:46:00,
2013-05-21 20:51:00,77.9,69.3,29.85,West,269,0.0,2.0,75,0.00,,---,0.00,VWS V14.01,2013-05-22 00:51:00,
2013-05-21 20:56:00,77.7,69.5,29.85,West,269,0.0,2.0,76,0.00,,---,0.00,VWS V14.01,2013-05-22 00:56:00,
2013-05-21 21:01:00,77.4,68.9,29.84,NNW,341,0.0,0.0,75,0.00,,---,0.00,VWS V14.01,2013-05-22 01:01:00,
2013-05-21 21:06:00,77.0,69.2,29.84,NNW,341,0.0,1.0,77,0.00,,---,0.00,VWS V14.01,2013-05-22 01:06:00,
2013-05-21 21:11:00,76.5,69.5,29.84,NW,311,0.0,1.0,79,0.00,,---,0.00,VWS V14.01,2013-05-22 01:11:00,
2013-05-21 21:16:00,76.2,69.2,29.84,West,262,1.0,1.0,79,0.00,,---,0.00,VWS V14.01,2013-05-22 01:16:00,
2013-05-21 21:21:00,76.3,68.9,29.85,West,259,1.0,2.0,78,0.00,,---,0.00,VWS V14.01,2013-05-22 01:21:00,
2013-05-21 21:26:00,76.3,68.9,29.85,West,267,0.0,2.0,78,0.00,,---,0.00,VWS V14.01,2013-05-22 01:26:00,
2013-05-21 21:31:00,76.4,69.0,29.85,West,263,0.0,0.0,78,0.00,,---,0.00,VWS V14.01,2013-05-22 01:31:00,
2013-05-21 21:36:00,76.3,68.9,29.85,WNW,285,0.0,2.0,78,0.00,,---,0.00,VWS V14.01,2013-05-22 01:36:00,
2013-05-21 21:41:00,76.2,68.8,29.85,West,262,1.0,2.0,78,0.00,,---,0.00,VWS V14.01,2013-05-22 01:41:00,
2013-05-21 21:46:00,75.9,68.9,29.85,SW,226,0.0,2.0,79,0.00,,---,0.00,VWS V14.01,2013-05-22 01:46:00,
2013-05-21 21:51:00,75.3,68.7,29.84,West,262,1.0,2.0,80,0.00,,---,0.00,VWS V14.01,2013-05-22 01:51:00,
2013-05-21 21:56:00,74.8,68.6,29.85,West,261,0.0,2.0,81,0.00,,---,0.00,VWS V14.01,2013-05-22 01:56:00,
2013-05-21 22:01:00,74.6,68.4,29.84,SSW,204,0.0,0.0,81,0.00,,---,0.00,VWS V14.01,2013-05-22 02:01:00,
2013-05-21 22:06:00,74.5,69.0,29.85,SSW,204,0.0,0.0,83,0.00,,---,0.00,VWS V14.01,2013-05-22 02:06:00,
2013-05-21 22:11:00,74.1,68.3,29.85,SSW,204,0.0,0.0,82,0.00,,---,0.00,VWS V14.01,2013-05-22 02:11:00,
2013-05-21 22:16:00,73.9,68.1,29.84,SSW,204,0.0,0.0,82,0.00,,---,0.00,VWS V14.01,2013-05-22 02:16:00,
2013-05-21 22:21:00,73.7,68.2,29.84,SSW,204,0.0,0.0,83,0.00,,---,0.00,VWS V14.01,2013-05-22 02:21:00,
2013-05-21 22:26:00,73.3,67.8,29.85,SSW,204,0.0,0.0,83,0.00,,---,0.00,VWS V14.01,2013-05-22 02:26:00,
2013-05-21 22:31:00,73.0,68.2,29.85,SSW,204,0.0,0.0,85,0.00,,---,0.00,VWS V14.01,2013-05-22 02:31:00,
2013-05-21 22:36:00,72.7,67.9,29.85,SSW,204,0.0,0.0,85,0.00,,---,0.00,VWS V14.01,2013-05-22 02:36:00,
2013-05-21 22:41:00,72.6,68.2,29.85,SSW,204,0.0,0.0,86,0.00,,---,0.00,VWS V14.01,2013-05-22 02:41:00,
2013-05-21 22:46:00,72.5,68.1,29.85,SSW,203,0.0,0.0,86,0.00,,---,0.00,VWS V14.01,2013-05-22 02:46:00,
2013-05-21 22:51:00,72.3,67.9,29.85,SSW,204,0.0,0.0,86,0.00,,---,0.00,VWS V14.01,2013-05-22 02:51:00,
2013-05-21 22:56:00,72.0,67.6,29.85,SSW,204,0.0,0.0,86,0.00,,---,0.00,VWS V14.01,2013-05-22 02:56:00,
2013-05-21 23:01:00,71.7,67.6,29.84,SSW,203,0.0,0.0,87,0.00,,---,0.00,VWS V14.01,2013-05-22 03:01:00,
2013-05-21 23:06:00,71.8,67.7,29.85,West,263,0.0,2.0,87,0.00,,---,0.00,VWS V14.01,2013-05-22 03:06:00,
2013-05-21 23:11:00,72.3,67.5,29.85,West,263,0.0,2.0,85,0.00,,---,0.00,VWS V14.01,2013-05-22 03:11:00,
2013-05-21 23:16:00,72.7,67.6,29.84,West,276,1.0,2.0,84,0.00,,---,0.00,VWS V14.01,2013-05-22 03:16:00,
2013-05-21 23:21:00,72.9,67.8,29.84,West,277,0.0,2.0,84,0.00,,---,0.00,VWS V14.01,2013-05-22 03:21:00,
2013-05-21 23:26:00,72.8,67.7,29.84,West,273,0.0,2.0,84,0.00,,---,0.00,VWS V14.01,2013-05-22 03:26:00,
2013-05-21 23:31:00,72.4,67.6,29.84,West,273,0.0,2.0,85,0.00,,---,0.00,VWS V14.01,2013-05-22 03:31:00,
2013-05-21 23:36:00,72.1,67.3,29.84,West,273,0.0,0.0,85,0.00,,---,0.00,VWS V14.01,2013-05-22 03:36:00,
2013-05-21 23:41:00,72.0,67.6,29.85,West,273,0.0,0.0,86,0.00,,---,0.00,VWS V14.01,2013-05-22 03:41:00,
2013-05-21 23:46:00,71.6,67.2,29.84,West,274,0.0,0.0,86,0.00,,---,0.00,VWS V14.01,2013-05-22 03:46:00,
2013-05-21 23:51:00,71.5,67.4,29.85,West,273,0.0,0.0,87,0.00,,---,0.00,VWS V14.01,2013-05-22 03:51:00,
2013-05-21 23:56:00,71.2,67.1,29.85,West,273,0.0,0.0,87,0.00,,---,0.00,VWS V14.01,2013-05-22 03:56:00,